Regional Weather Roundup
Issued by NWS

Home | Current Version | Previous Version | Graphics & Text | Print | Product List | Glossary On
Versions: 1 2 3 4 5 6 7 8 9 10 11 12 13 14 15 16 17 18 19 20 21 22 23 24 25 26 27 28 29 30 31 32 33 34 35 36 37 38 39 40 41 42 43 44 45 46 47 48 49 50
000
ASUS45 KBOI 310210
RWRID

IDAHO REGIONAL WEATHER ROUNDUP
NATIONAL WEATHER SERVICE BOISE ID
800 PM MDT SUN AUG 30 2015

NOTE: "FAIR" INDICATES FEW OR NO CLOUDS BELOW 12000 FEET
WITH NO SIGNIFICANT WEATHER AND/OR OBSTRUCTIONS TO VISIBILITY

IDZ012-014-310300-
SOUTHWEST IDAHO


CITY           SKY/WX    TMP DP  RH WIND       PRES   REMARKS
BOISE          CLEAR     76  38  25 N7        29.94F
CALDWELL       CLEAR     75  41  29 N6        29.95S
MOUNTAIN HOME  CLEAR     77  36  22 N16       29.92S
$$

IDZ016-017-310300-
SOUTHCENTRAL IDAHO


CITY           SKY/WX    TMP DP  RH WIND       PRES   REMARKS
BURLEY         CLEAR     69  35  28 W6        29.97S
JEROME         CLEAR     68  41  37 W3        29.98S
TWIN FALLS     CLEAR     73  33  23 SW3       29.98S
$$

IDZ019>023-310300-
SOUTHEAST IDAHO


CITY           SKY/WX    TMP DP  RH WIND       PRES   REMARKS
IDAHO FALLS    PTCLDY    71  28  20 SW10G21   29.98S
POCATELLO      CLEAR     71  34  25 W14       29.98S
REXBURG        PTCLDY    69  29  22 SW9       29.96S
$$

IDZ006-010-011-018-031-032-310300-
CENTRAL IDAHO MOUNTAINS


CITY           SKY/WX    TMP DP  RH WIND       PRES   REMARKS
MCCALL         MOCLDY    57  41  55 W5        30.06S
HAILEY         CLEAR     70  27  19 W5G21     30.04S
STANLEY          N/A     59  29  31 VRB5      30.11R
SALMON         PTCLDY    70  27  19 W12G21    29.91R
CHALLIS        CLEAR     67  25  20 W14G23    30.00R
$$

IDZ002-004-006-007-026-310300-
NORTHERN IDAHO


CITY           SKY/WX    TMP DP  RH WIND       PRES   REMARKS
LEWISTON       CLOUDY    71  42  35 W8        29.97S
LOWELL           N/A     57  55  93 CALM      30.05F
COEUR D`ALENE  PTCLDY    61  48  63 S12       29.92F
MULLAN PASS    CLOUDY    41  40  96 S8G22     30.02S
$$


USA.gov is the U.S. government's official web portal to all federal, state and local government web resources and services.